Location: Tr�vern
(48.0333°N, 4.6000°W)
Time: 18:15:37
(UTC+00:00)

Meteor 1-4 Rocket - Pass Details

Date: 14 July 2020
Orbit: 449 x 503 km, 81.2° (Epoch: 12 August)

Event Time Altitude Azimuth Distance (km) Brightness Sun altitude
Rises 00:14:47 0° 358° (N) 2,593 7.9 -20.3°
Reaches altitude 10° 00:17:11 10° 11° (NNE) 1,697 6.4 -20.3°
Maximum altitude 00:20:21 26° 70° (ENE) 997 4.3 -20.3°
Enters shadow 00:21:24 22° 98° (E) 1,092 4.2 -20.3°
